FW1232 Weather Reports


time (UTC)temp
F
wind
direction
speed
knots
gust
knots
rain 1hr
in
rain 24hr
in
rain mn
in
humidity
%
barometer
mb
20260503214600 63 178 3.5 11.3 0.00 0.00 0.00 51 1016.3
20260503213056 62 215 7.0 13.9 0.00 0.00 0.00 51 1016.8
20260503211557 64 262 5.2 12.2 0.00 0.00 0.00 53 1017.2
20260503210056 64 239 5.2 10.4 0.00 0.00 0.00 51 1017.3
20260503204556 63 253 5.2 13.9 0.00 0.00 0.00 55 1017.4
20260503203111 63 277 6.1 13.0 0.00 0.00 0.00 51 1017.5
20260503201556 63 209 8.7 13.9 0.00 0.00 0.00 55 1017.8
20260503200105 63 200 4.3 13.0 0.00 0.00 0.00 52 1018.1
20260503194557 63 182 6.1 13.9 0.00 0.00 0.00 52 1018.2
20260503193056 62 291 3.5 11.3 0.00 0.00 0.00 51 1018.3
20260503191558 61 200 4.3 12.2 0.00 0.00 0.00 48 1018.6
20260503190108 62 247 1.7 10.4 0.00 0.00 0.00 51 1018.8
20260503184602 61 259 1.7 8.7 0.00 0.00 0.00 48 1019.2
20260503183101 59 277 2.6 11.3 0.00 0.00 0.00 52 1019.2
20260503181601 61 255 1.7 8.7 0.00 0.00 0.00 46 1019.5
20260503180059 59 308 4.3 10.4 0.00 0.00 0.00 49 1019.7
20260503174603 59 294 6.1 10.4 0.00 0.00 0.00 49 1019.8
20260503173100 60 0 2.6 10.4 0.00 0.00 0.00 45 1020.1
20260503171604 59 219 2.6 8.7 0.00 0.00 0.00 46 1020.4
20260503100109 40 106 2.6 3.5 0.00 0.00 0.00 90 1020.0
20260503081602 44 97 0.9 3.5 0.00 0.00 0.00 83 1019.8
20260503071601 46 14 3.5 6.1 0.00 0.00 0.00 80 1019.3
20260503060118 45 69 1.7 3.5 0.00 0.00 0.00 84 1018.9
20260503054611 47 0 0.0 3.5 0.00 0.00 0.00 83 1018.8
20260503053058 49 0 0.0 4.3 0.00 0.00 0.00 78 1018.9
20260503051557 49 5 3.5 7.0 0.00 0.00 0.00 78 1018.9
20260503050058 49 342 3.5 7.8 0.00 0.00 0.00 77 1018.8
20260503044600 49 338 4.3 7.8 0.00 0.00 0.00 79 1018.8
20260503043058 49 337 3.5 7.0 0.00 0.00 0.00 77 1018.8
20260503041559 49 5 3.5 7.8 0.00 0.00 0.00 74 1018.6
20260503040105 50 355 5.2 9.6 0.00 0.00 0.00 72 1018.4
20260503034607 50 5 3.5 7.8 0.00 0.00 0.00 74 1018.4
20260503033106 50 9 6.1 11.3 0.00 0.00 0.00 71 1018.4
20260503031558 51 355 6.1 8.7 0.00 0.00 0.00 72 1018.3
20260503030059 51 355 5.2 8.7 0.00 0.00 0.00 70 1018.2
20260503024559 51 13 3.5 10.4 0.00 0.00 0.00 69 1018.5
20260503023107 51 9 6.1 11.3 0.00 0.00 0.00 69 1018.3
20260503021559 52 348 6.1 9.6 0.00 0.00 0.00 69 1018.0
20260503020100 52 5 5.2 7.8 0.00 0.00 0.00 70 1017.8
20260503014608 53 327 4.3 9.6 0.00 0.00 0.00 65 1017.7
20260503013058 53 316 3.5 7.0 0.00 0.00 0.00 68 1017.5
20260503011604 53 304 1.7 3.5 0.00 0.00 0.00 65 1017.4
20260503010056 53 5 1.7 4.3 0.00 0.00 0.00 68 1017.2
20260503004605 53 5 2.6 5.2 0.00 0.00 0.00 65 1017.1
20260503003103 54 9 3.5 6.1 0.00 0.00 0.00 64 1017.0
20260503001618 54 360 3.5 7.0 0.00 0.00 0.00 64 1016.8
20260503000121 54 14 5.2 7.8 0.00 0.00 0.00 61 1016.5
20260502234606 54 9 7.0 9.6 0.00 0.00 0.00 60 1016.4
20260502233100 55 5 7.0 11.3 0.00 0.00 0.00 61 1016.2
20260502231610 55 19 6.1 8.7 0.00 0.00 0.00 63 1016.1
20260502230057 55 31 6.1 10.4 0.00 0.00 0.00 65 1016.2
20260502224600 55 40 6.1 10.4 0.00 0.00 0.00 64 1016.0
20260502223101 55 5 6.1 9.6 0.00 0.00 0.00 62 1016.2
20260502221600 55 5 7.0 9.6 0.00 0.00 0.00 59 1016.0
20260502220100 56 360 5.2 8.7 0.00 0.00 0.00 61 1016.0